N2NET Weather Reports


time (UTC)temp
C
wind
direction
speed
KPH
gust
KPH
rain 1hr
cm
rain 24hr
cm
rain mn
cm
humidity
%
barometer
mb
20260503184630 10 295 11.3 29.0 0.00 0.00 0.00 38 1009.5
20260503183059 9 338 12.9 27.4 0.00 0.00 0.00 39 1009.6
20260503181552 9 328 8.0 20.9 0.00 0.00 0.00 41 1009.8
20260503180056 8 343 14.5 33.8 0.00 0.00 0.00 41 1009.8
20260503174610 8 277 6.4 25.7 0.00 0.00 0.00 40 1010.1
20260503173118 8 311 19.3 35.4 0.00 0.00 0.00 43 1010.1
20260503171554 7 67 11.3 30.6 0.00 0.00 0.00 41 1010.2
20260503090104 2 188 0.0 6.4 0.00 0.03 0.00 71 1009.9
20260503081559 2 287 3.2 11.3 0.00 0.03 0.00 70 1010.3
20260503071610 2 0 0.0 6.4 0.00 0.05 0.00 70 1010.3
20260503070110 3 273 4.8 17.7 0.00 0.05 0.00 69 1010.3
20260503060107 3 311 3.2 12.9 0.00 0.18 0.00 66 1010.8
20260503054558 3 310 9.7 19.3 0.00 0.20 0.00 65 1011.0
20260503053055 3 271 6.4 19.3 0.00 0.20 0.00 65 1011.2
20260503051600 3 339 8.0 20.9 0.00 0.20 0.00 65 1011.3
20260503044556 4 307 4.8 24.1 0.00 0.20 0.00 66 1011.5
20260503043102 3 308 1.6 4.8 0.00 0.20 0.00 68 1011.5
20260503041555 2 302 0.0 1.6 0.00 0.20 0.00 71 1011.6
20260503040058 3 300 0.0 8.0 0.00 0.20 0.00 71 1011.5
20260503034554 2 0 1.6 3.2 0.00 0.28 0.20 73 1011.6
20260503033058 2 0 0.0 4.8 0.00 0.28 0.20 74 1011.6
20260503031552 2 262 0.0 1.6 0.00 0.28 0.20 75 1011.7
20260503030052 2 0 0.0 3.2 0.00 0.28 0.20 74 1011.8
20260503024558 2 0 0.0 3.2 0.00 0.28 0.20 74 1012.0
20260503023052 2 321 0.0 3.2 0.00 0.28 0.20 71 1012.0
20260503021553 2 0 0.0 3.2 0.00 0.28 0.20 69 1012.1
20260503020052 3 0 0.0 3.2 0.00 0.28 0.20 66 1012.0
20260503014625 4 225 1.6 4.8 0.00 0.28 0.20 63 1011.9
20260503013052 5 0 1.6 4.8 0.00 0.28 0.20 62 1012.0
20260503011620 6 310 3.2 9.7 0.00 0.28 0.20 55 1012.0
20260503010056 6 225 0.0 6.4 0.00 0.28 0.20 55 1011.8
20260503004549 6 349 4.8 14.5 0.00 0.28 0.20 51 1011.6
20260503003053 6 321 1.6 9.7 0.00 0.28 0.20 50 1011.4
20260503001549 7 0 0.0 4.8 0.00 0.28 0.20 50 1011.4
20260503000049 7 323 4.8 11.3 0.00 0.28 0.20 44 1011.2
20260502234608 7 312 1.6 6.4 0.00 0.28 0.20 47 1010.8
20260502233052 8 0 1.6 16.1 0.00 0.28 0.20 44 1010.8
20260502231550 8 333 9.7 17.7 0.00 0.28 0.20 40 1010.6
20260502230058 9 284 6.4 19.3 0.00 0.28 0.20 39 1010.6
20260502224552 10 297 12.9 22.5 0.00 0.28 0.20 38 1010.6
20260502223059 10 270 12.9 25.7 0.00 0.28 0.20 38 1010.4
20260502221551 10 304 14.5 27.4 0.00 0.28 0.20 38 1010.4
20260502220100 10 300 8.0 29.0 0.00 0.28 0.20 39 1010.3
20260502214550 10 273 8.0 27.4 0.00 0.28 0.20 39 1010.4
20260502213054 10 237 6.4 30.6 0.00 0.28 0.20 42 1010.1
20260502211555 11 347 12.9 29.0 0.00 0.28 0.20 39 1010.0
20260502210056 11 312 16.1 24.1 0.00 0.28 0.20 37 1010.0
20260502204559 11 311 6.4 24.1 0.00 0.28 0.20 36 1009.7
20260502203115 11 295 16.1 24.1 0.00 0.28 0.20 37 1009.8
20260502201604 11 323 16.1 29.0 0.00 0.28 0.20 37 1010.0
20260502200059 11 302 9.7 27.4 0.00 0.28 0.20 37 1009.9
20260502194558 11 347 9.7 17.7 0.00 0.28 0.20 38 1009.9
20260502193113 11 308 12.9 27.4 0.00 0.28 0.20 37 1010.2
20260502191553 12 338 11.3 27.4 0.00 0.28 0.20 37 1010.3
20260502190052 11 319 8.0 17.7 0.00 0.28 0.20 36 1010.4